{"data":{"norad_id":67478,"intl_designator":"2026-010C","name":"TIANQI-39","alt_names":[],"object_type":"PAYLOAD","status":"ACTIVE","operator":null,"country":"PRC","launch_date":"2026-01-15","launch_site_code":"YSLA","launch_vehicle":null,"mission":null,"orbit_class":"UNKNOWN","rcs_meters":null,"size_class":null,"mass_kg":null,"dimensions":null,"purposes":[],"wikipedia_slug":null,"has_3d_model":false,"image_url":null,"decayed_at":null,"tle_current":{"epoch":"2026-05-25T02:43:53.491584Z","epoch_age_seconds":61263,"freshness":"FRESH","line1":"1 67478U 26010C   26145.11381356  .00000056  00000+0  11693-3 0  9990","line2":"2 67478  44.9794 181.4528 0016067 232.5272 127.4102 14.03969656 18200","mean_motion":14.03969656,"eccentricity":0.0016067,"inclination_deg":44.9794,"raan_deg":181.4528,"arg_perigee_deg":232.5272,"mean_anomaly_deg":127.4102,"bstar":0.00011693,"rev_number":1820,"period_min":102.56631928233,"perigee_km":868.41953712472,"apogee_km":891.74309586294,"semimajor_km":7258.2183164938,"source":"CELESTRAK","updated_at":"2026-05-25T13:38:07.037598Z"}}}